Regional Weather Roundup
Issued by NWS

Home | Current Version | Previous Version | Graphics & Text | Print | Product List | Glossary Off
Versions: 1 2 3 4 5 6 7 8 9 10 11 12 13 14 15 16 17 18 19 20 21 22 23 24 25 26 27 28 29 30 31 32 33 34 35 36 37 38 39 40 41 42 43 44 45 46 47 48 49 50

000
ASUS43 KDTX 290801
RWRMI
MICHIGAN HOURLY REGIONAL WEATHER ROUNDUP
NATIONAL WEATHER SERVICE DETROIT/PONTIAC MI
400 AM EDT SAT AUG 29 2015

NOTE: "FAIR" INDICATES FEW OR NO CLOUDS BELOW 12,000 FEET WITH NO
SIGNIFICANT WEATHER AND/OR OBSTRUCTION TO VISIBILITY.

MIZ047>049-052>055-059>063-066>070-074>076-081>083-290900-
SOUTHEAST LOWER MICHIGAN

CITY           SKY/WX    TMP DP  RH WIND       PRES   REMARKS
ADRIAN         CLOUDY    60  58  92 CALM      30.13F
ALMA           LGT RAIN  62  61  97 CALM      30.13S
ANN ARBOR      CLOUDY    60  58  92 CALM      30.13F
BAD AXE        CLOUDY    61  58  91 CALM      30.12F
CARO           LGT RAIN  61  60  97 SW3       30.13S
DETROIT CITY   CLOUDY    67  62  84 SW3       30.13F
DETROIT        CLOUDY    65  62  90 CALM      30.13F
FLINT          LGT RAIN  66  61  84 CALM      30.14S
GROSSE ILE     CLOUDY    70  64  83 S6        30.11F
HILLSDALE      MOCLDY    63  62  94 CALM      30.13F
HOWELL         CLOUDY    64  61  92 CALM      30.14S

CITY           SKY/WX    TMP DP  RH WIND       PRES   REMARKS
JACKSON        MOCLDY    62  58  86 S6        30.13F
LAMBERTVILLE   CLOUDY    63  59  87 CALM      30.13S
LANSING        CLOUDY    64  62  93 N5        30.13S
LAPEER         LGT RAIN  60  60  99 CALM      30.15R
MASON          CLOUDY    63  59  86 CALM      30.13S
MONROE         CLOUDY    65  60  85 CALM      30.12F
MT. CLEMENS    CLOUDY    62  60  93 NW2       30.12S FOG
PONTIAC        LGT RAIN  65  63  93 W3        30.14S
PORT HOPE        N/A     63  59  87 VRB6      30.10F
PORT HURON     MOCLDY    57  57 100 CALM      30.14S FOG
TRI CITIES     CLOUDY    64  60  87 W6        30.14S
MIDLAND        LGT RAIN  63  61  92 W3        30.12F
TROY           DRIZZLE   66  63  88 CALM      30.15S
SAGINAW HB     LGT RAIN  63  63 100 SW3       30.13S
$$
MIZ043>046-050>051-056>058-064>065-071>073-077>080-290900-
SOUTHWEST LOWER MICHIGAN

CITY           SKY/WX    TMP DP  RH WIND       PRES   REMARKS
BATTLE CREEK   MOCLDY    66  60  81 SE5       30.12F
BENTON HARBOR  MOCLDY    66  60  81 SE6       30.08F
BIG RAPIDS     LGT RAIN  60  59  97 CALM      30.13R
COLDWATER      MOCLDY    63  60  90 SE5       30.12F
FREMONT        LGT RAIN  61  60  97 E6        30.11S
HOLLAND        CLOUDY    65  62  90 E5        30.11S
GRAND RAPIDS   CLOUDY    63  61  93 E5        30.11F
IONIA          FAIR      62  61  98 E3        30.11F
KALAMAZOO      CLOUDY    66  59  78 CALM      30.11F
LUDINGTON      RAIN      61  58  91 CALM      30.11S
MARSHALL       MOCLDY    64  59  85 CALM      30.12S
MOUNT PLEASANT DRIZZLE   64  61  89 CALM      30.12S
MUSKEGON       LGT RAIN  62  59  90 E8        30.10F
SOUTH HAVEN    CLOUDY    65  61  87 CALM      30.09S
$$
MIZ016>042-290900-
NORTHERN LOWER MICHIGAN

CITY           SKY/WX    TMP DP  RH WIND       PRES   REMARKS
ALPENA         LGT RAIN  63  60  90 CALM      30.09F
BEAVER ISLAND  CLOUDY    63  59  86 SW20G30   30.08F
BELLAIRE       LGT RAIN  63  60  93 CALM      30.12R
CADILLAC       RAIN      59  58  96 SW5       30.13S
CHARLEVOIX     DRIZZLE   62  60  91 W16       30.14R
FRANKFORT      LGT RAIN  60  58  93 W7        30.12S
GAYLORD        LGT RAIN  61  60  97 W9        30.11F
GRAYLING       LGT RAIN  59  58  96 CALM      30.14R
HARBOR SPRINGS DRIZZLE   62  60  93 W10G20    30.10R
HOUGHTON LAKE  CLOUDY    61  56  83 SW7       30.14S
MANISTEE       CLOUDY    61  55  82 CALM      30.12S
OSCODA         CLOUDY    61  60  95 CALM      30.09S
PELLSTON       LGT RAIN  63  60  90 W12       30.09S
ROGERS CITY    DRIZZLE   63  60  92 SW7       30.09S
TRAVERSE CITY  LGT RAIN  63  61  93 VRB3      30.11R FOG
$$
MIZ007>008-015-290900-
EASTERN UPPER MICHIGAN

CITY           SKY/WX    TMP DP  RH WIND       PRES   REMARKS
KINROSS        CLOUDY    64  63  94 SW10G17   30.05S
MACKINAC ISLAN RAIN      63  60  91 W15G22    30.07S
NEWBERRY       CLOUDY    64  62  94 SW13      30.04S
S. S. MARIE    MOCLDY    65  62  90 SW9       30.03S
MUNISING         N/A     68  61  78 SW6       30.03S
$$
MIZ004>006-011>014-085-290900-
CENTRAL UPPER MICHIGAN

CITY           SKY/WX    TMP DP  RH WIND       PRES   REMARKS
MANISTIQUE     CLOUDY    62  60  94 SW7       30.06S
ESCANABA       CLOUDY    61  57  88 SW5       30.07S
MENOMINEE      CLOUDY    61  54  77 SW7       30.07F
SAWYER-GWINN   MOCLDY    62  59  89 W10       30.05R
$$
MIZ001>003-009>011-084-290900-
WESTERN UPPER MICHIGAN

CITY           SKY/WX    TMP DP  RH WIND       PRES   REMARKS
IRON MOUNTAIN  CLOUDY    61  57  87 S5        30.05F
HOUGHTON       CLOUDY    64  59  83 W14       29.98F
COPPER HARBOR    N/A     66  60  81 VRB6      29.95F
IRONWOOD       PTCLDY    61  54  77 CALM      30.06R
$$

ABBREVIATIONS USED IN REMARKS
   TC - TEMPERATURE IN CELSIUS
  WCI - WIND CHILL INDEX
   HX - HEAT INDEX
  VSB - VISIBILITY



USA.gov is the U.S. government's official web portal to all federal, state and local government web resources and services.